User: anonymous
Location: Unspecified
(0.0000°N, 0.0000°E)
Time: 20:30:28
(UTC+02:00)
Language:

BREEZE-M DEB (TANK) - Orbit

View from above orbital plane
View from above orbital plane
View from above satellite
View from above satellite

Ground track
Ground track

The orbit data is extracted from the following two-line orbital elements,

1 33374U 08044B   14231.71731593  .00001249  00000-0  51461-3 0  7054
2 33374 049.4710 286.6860 5447933 186.4443 351.8384 04.84321749103815
Epoch (UTC): 19 August 2014 17:12:56
Eccentricity: 0.5447933
inclination: 49.4710°
perigee height: 339 km
apogee height: 16417 km
right ascension of ascending node: 286.6860°
argument of perigee: 186.4443°
revolutions per day: 4.84321749
mean anomaly at epoch: 351.8384°
orbit number at epoch: 10381

The dashed part of the orbit path shows where the satellite is in the earth's shadow,  

DLR